This demonstration page uses our WeatherBlox Daily Observations layout. Learn more.

Left ArrowRight Arrow

44.8408, -93.29828

Hourly Observations for May 31, 2015

Temp ( °F °C ) Dew Point ( °F °C ) Humidity (%) Winds ( mph kmh ) Pressure ( in mb ) Visibility ( mi km ) Precip ( " mm )
12:53 am 00:53 Clear 49 9.4 31 -0.6 50 50 ENE 12 19 30.29 1026 10 16 0.00 0.00
1:53 am 01:53 Clear 47 8.3 31 -0.6 54 54 E 8 13 30.30 1026 10 16 0.00 0.00
2:53 am 02:53 Clear 47 8.3 31 -0.6 54 54 E 12 19 30.30 1026 10 16 0.00 0.00
3:53 am 03:53 Clear 45 7.2 31 -0.6 58 58 E 10 17 30.30 1026 10 16 0.00 0.00
4:53 am 04:53 Clear 44 6.7 32 0 63 63 E 9 15 30.30 1026 10 16 0.00 0.00
5:53 am 05:53 Sunny 44 6.7 32 0 63 63 ENE 10 17 30.32 1027 10 16 0.00 0.00
6:53 am 06:53 Sunny 45 7.2 32 0 61 61 E 9 15 30.33 1027 10 16 0.00 0.00
7:53 am 07:53 Mostly Sunny 47 8.3 31 -0.6 54 54 ESE 14 22 30.32 1027 10 16 0.00 0.00
8:53 am 08:53 Mostly Sunny 50 10 33 0.6 52 52 E 12 19 30.31 1027 10 16 0.00 0.00
9:53 am 09:53 Mostly Sunny 52 11.1 34 1.1 50 50 E 8 13 30.32 1027 10 16 0.00 0.00
10:53 am 10:53 Partly Cloudy 54 12.2 34 1.1 47 47 ESE 7 11 30.32 1027 10 16 0.00 0.00
11:53 am 11:53 Mostly Cloudy 57 13.9 34 1.1 42 42 ESE 9 15 30.32 1027 10 16 0.00 0.00
12:53 pm 12:53 Cloudy 58 14.4 35 1.7 42 42 ESE 8 13 30.31 1026 10 16 0.00 0.00
1:53 pm 13:53 Cloudy 58 14.4 33 0.6 39 39 SE 8 13 30.29 1026 10 16 0.00 0.00
2:53 pm 14:53 Cloudy 60 15.6 36 2.2 41 41 ENE 12 19 30.27 1025 10 16 0.00 0.00
3:53 pm 15:53 Cloudy 62 16.7 38 3.3 41 41 E 9 15 30.25 1024 10 16 0.00 0.00
4:53 pm 16:53 Mostly Cloudy 63 17.2 38 3.3 40 40 E 13 20 30.24 1024 10 16 0.00 0.00
5:53 pm 17:53 Mostly Cloudy 63 17.2 38 3.3 40 40 VRB 7 11 30.22 1024 10 16 0.00 0.00
6:53 pm 18:53 Mostly Cloudy 62 16.7 39 3.9 43 43 ENE 8 13 30.22 1024 10 16 0.00 0.00
7:53 pm 19:53 Mostly Cloudy 61 16.1 38 3.3 43 43 E 8 13 30.23 1024 10 16 0.00 0.00
8:53 pm 20:53 Partly Cloudy 59 15 39 3.9 48 48 ENE 7 11 30.24 1024 10 16 0.00 0.00
9:53 pm 21:53 Partly Cloudy 57 13.9 41 5 55 55 E 9 15 30.24 1024 10 16 0.00 0.00
10:53 pm 22:53 Partly Cloudy 56 13.3 41 5 57 57 ENE 7 11 30.25 1024 10 16 0.00 0.00
11:53 pm 23:53 Mostly Clear 54 12.2 41 5 62 62 E 7 11 30.25 1024 10 16 0.00 0.00

Powered by AerisWeather